Back to catalog

METEOR 2-2 DEB

AlivePO
NORAD 35423·DEBRIS·🇷🇺 Russia

Launched Jan 6, 1977 from Plesetsk Cosmodrome

Loading…

Next Passes (next 24 hours)

TLE

FreshSource: Space-Track

Epoch: Sep 12, 2026, 16:08 UTC

1 35423U 77002F   26255.67260718  .00005210  00000-0  15199-2 0  9995
2 35423  81.2382 232.6514 0017960  68.5605 291.7498 14.43933451682686

Track METEOR 2-2 DEB in real time with AllMySat

Download on the App Store